Kuchera_Ratio
0.0 0.0 0.0 0.0 0.0 0.0 0.0 4.2 11.8 0.0 0.0 9.8 14.4 15.0 10.1 3.5 4.5 0.7 3.7 4.9 6.7 8.9 9.1 11.7 11.1 11.1 6.3 0.0 1.3 11.1 6.9 12.2 14.1 10.7 0.7 2.3 4.3 8.7 9.5 14.6 15.0 12.8 13.8 8.7
0.0 0.0 0.0 0.0 0.0 0.0 0.4 10.3 9.5 0.0 0.0 13.8 15.1 12.1 9.9 6.3 6.3 5.7 6.3 7.9 4.7 4.3 9.5 13.7 10.3 7.7 0.7 0.1 4.1 8.1 5.9 13.0 16.8 12.7 7.3 6.3 11.3 8.9 8.1 9.9 11.5 13.6 16.2 10.1
0.0 0.0 0.0 0.0 0.0 0.0 0.0 10.8 13.8 10.2 9.1 9.3 10.3 11.9 11.5 11.3 3.7 5.5 5.1 6.1 4.1 7.9 11.9 6.9 12.2 10.5 4.3 2.1 3.5 0.0 0.5 12.1 15.6 18.3 16.2 12.8 15.0 12.7 10.7 12.4 14.8 13.8 12.7 9.5
0.0 0.0 0.0 0.0 0.0 0.0 0.0 12.1 14.7 12.1 14.5 13.8 9.5 9.1 11.3 12.5 12.5 5.3 3.9 7.5 7.7 10.9 14.4 12.8 13.1 8.5 7.7 4.3 2.1 2.7 6.3 15.7 15.5 14.3 12.4 10.9 11.9 12.9 10.1 13.1 12.2 15.2 7.3 6.9
0.0 0.0 0.0 0.0 0.0 0.0 2.6 12.1 13.3 9.1 12.1 9.9 11.3 11.3 13.3 12.8 10.1 8.9 10.1 10.9 7.9 9.1 14.2 13.3 15.4 12.3 11.7 12.4 6.1 8.5 8.3 15.3 13.0 15.6 10.7 8.9 12.0 8.7 7.3 6.7 4.3 6.1 4.7 5.5
0.0 0.0 0.0 0.0 0.0 0.0 4.2 5.7 4.7 8.5 12.6 12.7 14.2 13.7 11.5 10.7 7.9 5.9 4.5 7.5 10.9 12.5 9.7 5.7 4.9 5.1 6.3 7.5 10.9 11.5 12.4 14.5 15.8 18.5 12.4 12.6 15.8 8.3 5.3 4.3 1.7 4.1 10.7 5.9
0.0 0.0 0.0 0.0 0.0 0.0 0.0 2.7 4.5 11.1 14.9 13.0 12.5 9.7 8.7 9.5 8.3 11.9 6.5 5.7 10.3 3.9 0.1 2.3 3.1 5.1 6.3 6.9 7.7 6.9 13.6 13.9 15.3 17.6 14.9 20.8 6.1 0.0 0.0 2.7 0.7 2.3 4.9 3.1
0.0 0.0 0.0 0.0 0.0 0.0 0.0 0.0 3.5 8.7 14.1 12.3 10.7 9.9 9.7 7.9 7.1 9.5 9.3 5.9 2.3 0.5 5.9 13.4 16.7 16.9 15.7 13.3 7.3 7.3 10.9 13.7 16.7 18.4 17.3 12.5 7.3 4.5 6.5 5.7 6.3 2.1 7.3 4.1
0.0 0.0 0.0 0.0 0.0 0.0 0.0 0.0 0.0 5.5 12.9 13.2 5.7 9.5 7.7 13.1 13.5 13.1 9.7 2.5 0.7 4.1 13.2 16.3 19.4 20.0 17.6 16.5 12.7 6.7 9.9 9.7 14.5 16.8 19.0 20.1 7.7 0.1 0.0 0.0 11.1 0.0 2.1 4.1
0.0 0.0 0.0 0.0 0.0 0.0 0.0 0.0 0.0 4.1 10.7 6.9 5.7 12.0 12.3 8.5 12.1 14.2 13.0 10.1 9.9 6.9 15.9 17.2 18.4 17.8 12.3 16.5 17.3 15.1 13.6 15.2 17.2 17.0 17.7 12.8 1.5 0.0 0.0 12.6 11.7 0.0 0.0 1.7
0.0 0.0 0.0 0.0 0.0 0.0 0.0 0.0 0.0 2.1 8.5 5.7 4.7 3.7 8.1 9.3 9.9 14.6 12.1 12.8 14.1 15.5 17.1 17.2 16.8 16.2 14.2 15.0 12.2 13.2 13.9 15.4 16.1 15.1 17.0 18.1 0.0 0.0 8.9 2.5 0.0 0.0 0.0 0.0
0.0 0.0 0.0 0.0 0.0 0.0 0.0 1.7 0.0 0.0 6.1 7.3 1.1 0.3 0.0 0.1 0.7 7.7 10.7 12.0 12.3 12.0 14.4 15.5 15.2 15.6 14.7 14.7 17.6 6.5 14.5 10.9 13.5 13.1 13.0 0.5 0.0 0.0 0.0 0.0 0.0 0.0 0.0 0.0
0.0 0.0 0.0 0.0 0.0 0.0 0.0 0.3 0.5 2.7 8.1 7.3 7.1 7.1 0.0 0.0 0.0 0.0 12.4 11.5 5.3 8.7 5.9 12.3 12.9 16.6 12.6 16.3 14.9 12.4 6.3 1.7 10.7 10.5 4.7 1.1 0.0 0.0 0.0 0.0 0.0 0.0 0.0 0.0
0.0 0.0 0.0 0.0 0.0 0.0 0.0 0.5 1.1 2.3 6.9 14.0 12.2 1.5 4.9 0.0 0.3 1.1 0.3 1.9 5.1 5.3 7.9 12.7 14.4 15.4 8.7 13.1 10.7 12.1 7.5 5.3 8.5 8.1 3.7 0.7 0.0 0.0 0.0 0.0 0.0 0.0 0.0 0.0
0.0 0.0 0.0 0.0 0.0 0.0 0.0 0.0 0.1 0.0 6.3 13.4 12.8 4.7 0.0 0.3 2.1 4.7 3.9 4.9 7.3 10.5 12.8 13.5 14.5 10.9 10.7 8.7 9.7 12.8 4.9 7.5 10.7 10.5 0.0 1.3 0.0 0.0 0.0 0.0 0.0 0.0 0.0 0.0
0.0 0.0 0.0 0.0 0.0 0.0 0.7 10.1 4.9 0.0 1.7 10.7 15.4 6.1 6.7 3.5 4.3 5.9 8.5 7.1 8.3 9.7 12.5 12.9 10.1 3.7 8.7 13.9 13.6 2.9 0.0 0.0 0.0 2.1 0.0 0.0 0.0 0.0 0.0 0.0 0.0 0.0 0.0 0.0
0.0 0.0 0.0 0.0 0.0 0.3 6.9 9.7 4.5 0.0 1.1 12.4 15.1 14.1 6.3 3.7 5.7 9.7 11.3 7.9 9.5 10.1 11.7 12.2 10.1 7.9 8.7 12.0 13.8 1.9 0.0 0.0 0.0 0.0 0.0 1.7 2.3 3.5 0.1 0.5 0.1 0.0 0.0 0.0
0.0 0.0 0.0 0.0 0.0 0.0 3.9 0.5 0.0 0.0 6.3 8.5 15.3 14.6 12.6 4.1 10.3 10.9 9.1 12.3 10.9 10.9 10.7 9.3 11.3 8.9 10.1 14.2 5.1 0.7 0.0 0.0 0.0 0.0 0.7 2.9 3.1 3.3 3.9 2.5 0.9 2.9 3.3 3.1
0.0 0.0 0.0 0.0 2.3 6.1 4.1 0.0 0.0 0.0 5.3 15.0 14.8 15.7 17.0 6.5 9.1 7.7 8.1 10.7 14.9 9.3 13.1 12.4 9.1 10.9 13.4 7.5 3.7 2.1 0.3 0.9 2.5 3.3 3.7 4.5 5.5 4.7 4.1 3.3 2.9 4.1 4.5 5.3
0.0 0.0 6.3 12.6 5.9 0.0 0.0 3.1 7.9 10.1 9.5 12.0 14.9 10.5 14.7 9.9 11.9 13.1 12.8 12.2 12.7 15.0 10.9 8.5 12.6 10.7 1.5 0.0 0.0 0.0 0.9 2.1 4.3 6.9 7.5 7.1 7.1 6.9 5.9 5.7 4.3 5.9 6.9 6.7
3.9 8.3 10.7 3.7 0.0 3.7 8.9 13.2 13.0 12.1 14.4 12.5 11.9 11.7 13.0 7.3 13.4 13.0 10.1 13.7 12.8 16.1 12.9 13.1 14.1 13.2 7.1 3.7 3.3 1.7 2.5 3.3 3.3 3.3 3.3 3.1 4.9 6.9 7.5 6.9 5.7 5.9 6.7 7.5
4.5 4.9 2.7 3.3 7.1 10.7 13.1 13.9 12.5 13.7 14.2 12.2 13.3 12.4 11.5 9.9 6.9 12.2 12.2 13.8 12.7 15.9 9.9 13.8 15.2 9.3 4.9 4.3 5.7 5.7 3.3 2.7 2.7 1.7 3.5 3.7 4.1 4.5 5.9 6.7 6.7 6.9 7.1 7.9
2.3 7.9 10.7 12.2 12.5 16.0 16.4 19.3 15.5 14.7 10.7 11.3 12.2 13.1 11.9 10.9 9.7 12.6 13.4 15.8 15.7 9.5 14.0 14.6 10.9 8.1 6.5 6.1 4.7 4.7 2.5 1.9 2.1 2.9 2.3 3.5 4.3 3.9 4.9 6.7 6.1 7.1 8.1 7.5
12.5 13.5 16.9 15.8 17.8 15.6 13.9 12.9 12.7 8.5 8.5 9.9 9.5 9.7 10.7 9.3 12.8 11.5 14.0 11.5 11.3 15.0 16.4 14.9 9.9 8.9 6.7 5.9 5.1 4.9 5.3 4.1 4.5 3.9 4.9 5.7 5.9 6.1 5.1 6.5 6.7 7.7 8.5 8.1
13.6 12.9 17.7 16.4 12.7 12.2 11.3 9.9 9.3 7.5 7.3 8.7 10.9 10.7 10.3 12.0 13.0 12.1 12.4 15.2 15.8 14.8 14.6 11.7 9.3 8.1 7.7 8.3 7.3 8.5 9.9 9.2 9.5 7.1 8.7 7.7 6.4 7.2 7.3 6.9 7.3 8.3 9.3 8.1
12.4 12.9 15.0 13.7 14.2 14.8 13.0 10.9 10.5 6.5 7.9 9.5 10.9 12.3 14.1 14.3 12.5 13.6 15.3 14.9 16.8 13.6 11.7 8.1 8.3 7.7 6.7 6.9 6.9 7.3 7.5 8.9 9.9 9.1 11.1 11.1 11.1 9.4 7.9 8.5 9.5 11.7 11.1 9.3
13.5 15.4 12.8 13.8 13.6 13.5 11.9 10.3 9.5 6.7 10.9 13.8 12.9 15.4 14.9 12.2 14.9 14.1 11.3 14.4 12.1 10.7 8.5 8.1 7.5 7.7 6.9 6.3 6.9 9.7 8.9 10.3 11.9 12.0 12.9 12.6 10.7 11.3 11.1 11.7 10.7 12.6 10.1 8.3